Content
SEND FEEDBACK

Daily
Averages
Monthly
Summary
United States of America

WALNUT GROVE, ALABAMA


Home > North America > United States > Alabama
Elevation: 85 feet     Latitude: 34 04N     Longitude: 086 19W

WEATHER
 
SELECT A DAY
Number of Records: 209,352;   Date Range: 3/15/06 - 9/30/14
 
SHARE

PRINT THIS DATA

[ ← Previous Day ]
WEATHER ALMANAC - SEPTEMBER 2, 2014
[ Next Day → ]
[ °C ]   °F
Weather ElementAverageHighLow
Temperature79.6 °F91.4 °F (1:55 pm)69.8 °F (12:35 am)
Dewpoint73.7 °F77 °F (12:55 pm)69.8 °F (9:15 am)
Humidity84 %100 % (4:15 am)55 % (11:55 am)
Barometer30.07 in30.13 in (8:55 pm)29.96 in (3:15 pm)
Wind Speed5 mph12.7 mph (6:15 pm)
Wind Gust18.4 mph (1:55 pm)
Weather ElementAverage
Visibility10 mi
Wind DirectionSSW (189.4 °)

Weather ElementTotal
Precipitation---
Cooling Degree Days15.6 (Base 65)
Growing Degree Days30.6 (Base 50)
Averaged from 71 records on September 2, 2014
WEATHER CONDITIONS BREAKOUT
WIND DIRECTION BREAKOUT
WEATHER BY HOUR - SEPTEMBER 2, 2014
[ °C ]   °F
Local TimeTemperatureDewpointHumidityBarometerVisibilityWind DirectionWind SpeedGust SpeedPrecipitationEventsConditions
12:15 AM73.4 °F73.4 °F100 %30.07 in10.0 miSE (140°)3.5 mphClear
12:35 AM73.4 °F73.4 °F100 %30.07 in10.0 miSE (140°)3.5 mphClear
12:55 AM73.4 °F73.4 °F100 %30.08 in10.0 miSE (140°)5.8 mphClear
1:15 AM73.4 °F73.4 °F100 %30.08 in10.0 miSSE (150°)3.5 mphClear
1:35 AM73.4 °F73.4 °F100 %30.08 in10.0 miSSE (150°)3.5 mphClear
1:55 AM71.6 °F71.6 °F100 %30.08 in10.0 miESE (120°)3.5 mphClear
2:15 AM71.6 °F71.6 °F100 %30.09 in10.0 miSE (130°)3.5 mphClear
2:35 AM71.6 °F71.6 °F100 %30.08 in10.0 miCalmClear
2:55 AM71.6 °F71.6 °F100 %30.09 in10.0 miSE (140°)4.6 mphClear
3:15 AM71.6 °F71.6 °F100 %30.09 in10.0 miSouth (170°)3.5 mphClear
3:35 AM71.6 °F71.6 °F100 %30.10 in10.0 miSouth (170°)3.5 mphClear
3:55 AM71.6 °F71.6 °F100 %30.09 in10.0 miSouth (170°)3.5 mphClear
4:15 AM71.6 °F71.6 °F100 %30.09 in10.0 miSouth (170°)5.8 mphClear
4:35 AM71.6 °F71.6 °F100 %30.09 in10.0 miSouth (170°)4.6 mphClear
4:55 AM71.6 °F71.6 °F100 %30.09 in10.0 miSouth (190°)4.6 mphClear
5:15 AM73.4 °F73.4 °F100 %30.09 in10.0 miSW (230°)3.5 mphClear
5:35 AM71.6 °F71.6 °F100 %30.10 in10.0 miSW (220°)4.6 mphClear
5:55 AM71.6 °F71.6 °F100 %30.11 in10.0 miCalmClear
6:15 AM71.6 °F71.6 °F100 %30.11 in10.0 miCalmClear
6:35 AM69.8 °F69.8 °F100 %30.11 in7.0 miCalmClear
6:55 AM71.6 °F71.6 °F100 %30.11 in10.0 miCalmClear
7:15 AM71.6 °F71.6 °F100 %30.11 in10.0 miCalmClear
7:35 AM73.4 °F73.4 °F100 %30.12 in10.0 miCalmClear
7:55 AM73.4 °F73.4 °F100 %30.12 in10.0 miSSW (210°)3.5 mphClear
8:15 AM75.2 °F73.4 °F94 %30.12 in10.0 miWSW (240°)3.5 mphClear
8:35 AM77.0 °F75.2 °F94 %30.12 in10.0 miWest (260°)3.5 mphClear
8:55 AM78.8 °F77.0 °F94 %30.13 in10.0 miWSW (240°)5.8 mphClear
9:15 AM80.6 °F77.0 °F89 %30.13 in10.0 miSW (220°)4.6 mphClear
9:35 AM80.6 °F77.0 °F89 %30.13 in10.0 miWest (280°)6.9 mphScattered Clouds
9:55 AM80.6 °F77.0 °F89 %30.13 in10.0 miWest (260°)5.8 mphClear
10:15 AM82.4 °F77.0 °F84 %30.12 in10.0 miWest (260°)5.8 mphClear
10:35 AM82.4 °F77.0 °F84 %30.12 in10.0 miWSW (240°)9.2 mphClear
10:55 AM84.2 °F75.2 °F74 %30.12 in10.0 miSW (220°)9.2 mphClear
11:15 AM86.0 °F77.0 °F74 %30.12 in10.0 miWSW (250°)8.1 mphClear
11:35 AM86.0 °F73.4 °F66 %30.11 in10.0 miWest (270°)6.9 mphScattered Clouds
11:55 AM87.8 °F75.2 °F66 %30.11 in10.0 miWest (280°)5.8 mphScattered Clouds
12:15 PM87.8 °F75.2 °F66 %30.10 in10.0 miWest (280°)8.1 mphScattered Clouds
12:35 PM87.8 °F73.4 °F62 %30.09 in10.0 miWSW (250°)10.4 mphScattered Clouds
12:55 PM89.6 °F73.4 °F59 %30.09 in10.0 miWest (260°)11.5 mphClear
1:15 PM89.6 °F73.4 °F59 %30.07 in10.0 miWSW (250°)4.6 mphScattered Clouds
1:35 PM87.8 °F75.2 °F66 %30.07 in10.0 miSSW (210°)10.4 mphScattered Clouds
1:55 PM89.6 °F73.4 °F59 %30.06 in10.0 miWest (260°)4.6 mphScattered Clouds
2:15 PM89.6 °F73.4 °F59 %30.04 in10.0 miWSW (250°)8.1 mphScattered Clouds
2:35 PM89.6 °F75.2 °F62 %30.03 in10.0 miWNW (290°)6.9 mphClear
2:55 PM89.6 °F73.4 °F59 %30.02 in10.0 miSSW (210°)5.8 mphClear
3:15 PM89.6 °F75.2 °F62 %30.02 in10.0 miWest (260°)8.1 mphScattered Clouds
3:35 PM89.6 °F75.2 °F62 %30.01 in10.0 miWNW (290°)6.9 mphClear
3:55 PM91.4 °F73.4 °F55 %30.01 in10.0 miWSW (250°)6.9 mphScattered Clouds
4:15 PM91.4 °F75.2 °F59 %30.00 in10.0 miWest (270°)9.2 mphMostly Cloudy
4:35 PM91.4 °F75.2 °F59 %29.98 in10.0 miSW (220°)8.1 mphScattered Clouds
4:55 PM89.6 °F73.4 °F59 %29.97 in10.0 miWest (260°)8.1 mphClear
5:15 PM89.6 °F73.4 °F59 %29.96 in10.0 miWest (270°)4.6 mphClear
5:55 PM87.8 °F75.2 °F66 %29.96 in10.0 miWest (260°)8.1 mphScattered Clouds
6:15 PM87.8 °F75.2 °F66 %29.97 in10.0 miWest (260°)5.8 mphMostly Cloudy
6:35 PM87.8 °F75.2 °F66 %29.98 in10.0 miWSW (250°)8.1 mphScattered Clouds
6:55 PM84.2 °F73.4 °F70 %30.00 in10.0 miWest (260°)12.7 mph18.4 mphClear
7:15 PM82.4 °F73.4 °F74 %30.01 in10.0 miWSW (250°)10.4 mphScattered Clouds
7:35 PM82.4 °F73.4 °F74 %30.01 in10.0 miWSW (250°)6.9 mphScattered Clouds
7:55 PM80.6 °F73.4 °F79 %30.01 in10.0 miWest (260°)4.6 mphScattered Clouds
8:15 PM78.8 °F73.4 °F83 %30.01 in10.0 miSW (220°)3.5 mphClear
8:35 PM78.8 °F73.4 °F83 %29.99 in10.0 miSSW (200°)5.8 mphClear
8:55 PM77.0 °F73.4 °F89 %30.00 in10.0 miCalmClear
9:15 PM75.2 °F73.4 °F94 %30.01 in10.0 miCalmClear
9:35 PM75.2 °F73.4 °F94 %30.02 in10.0 miEast (100°)3.5 mphClear
9:55 PM75.2 °F73.4 °F94 %30.03 in10.0 miCalmClear
10:15 PM75.2 °F73.4 °F94 %30.06 in10.0 miCalmScattered Clouds
10:35 PM75.2 °F73.4 °F94 %30.07 in10.0 miWNW (300°)4.6 mphMostly Cloudy
10:55 PM75.2 °F73.4 °F94 %30.07 in10.0 miWSW (250°)3.5 mphOvercast
11:15 PM75.2 °F73.4 °F94 %30.07 in10.0 miWSW (240°)4.6 mphMostly Cloudy
11:35 PM75.2 °F73.4 °F94 %30.07 in10.0 miSW (230°)4.6 mphOvercast
11:55 PM73.4 °F73.4 °F100 %30.06 in10.0 miSSW (210°)5.8 mphOvercast
Hourly data recorded from K8A0, located miles away from Walnut Grove, Alabama







STORIES FROM OUR PARTNERS